Flight Track Log - Related Links

Times and Time Zones

All times are in EDT time to prevent confusion due to time zone crossing. See the UAL501 flight status page for this flight to view local times or setup timezone preferences in your user account.

Time Position Orientation Groundspeed Altitude Reporting Facility
EDT Latitude Longitude Course Direction KTS MPH feet Rate Location/Type
Sun 07:17:56 PM 41.9411 -72.6919 298° West 128 147 800  Level Boston Center
Sun 07:18:49 PM 41.9614 -72.7436 298° West 176 203 2,900 2,609 Climbing Boston Center
Sun 07:19:51 PM 41.9422 -72.8294 253° West 239 275 5,800 3,268 Climbing Boston Center
Sun 07:20:52 PM 41.9303 -72.9317 261° West 270 311 9,600 3,049 Climbing Boston Center
Sun 07:21:53 PM 41.9247 -73.0592 267° West 322 371 12,000 2,878 Climbing Boston Center
Sun 07:22:55 PM 41.9175 -73.1886 266° West 349 402 15,500 2,927 Climbing Boston Center
Sun 07:23:56 PM 41.8981 -73.3200 259° West 362 417 18,000 2,459 Climbing Boston Center
Sun 07:24:57 PM 41.8367 -73.4522 238° Southwest 399 459 20,500 2,293 Climbing Boston Center
Sun 07:25:59 PM 41.7778 -73.5825 239° Southwest 404 465 22,700 1,902 Climbing Boston Center
Sun 07:27:00 PM 41.6800 -73.6811 217° Southwest 443 510 24,400 1,672 Climbing Boston Center
Sun 07:28:01 PM 41.5906 -73.7886 222° Southwest 447 514 26,100 1,721 Climbing Boston Center
Sun 07:29:02 PM 41.4947 -73.9011 221° Southwest 457 526 27,900 934 Climbing Boston Center
Sun 07:30:03 PM 41.4014 -74.0114 222° Southwest 457 526 28,000 49 Climbing Boston Center
Sun 07:31:05 PM 41.3075 -74.1225 222° Southwest 455 524 28,000  Level Boston Center
Sun 07:32:06 PM 41.1953 -74.2542 221° Southwest 455 524 28,000  Level Boston Center
Sun 07:33:07 PM 41.1014 -74.3642 221° Southwest 455 524 28,000  Level Boston Center
Sun 07:34:08 PM 41.0017 -74.4800 221° Southwest 455 524 28,000 -49 Level Boston Center
Sun 07:35:09 PM 40.9103 -74.5922 223° Southwest 454 522 27,900  Descending Boston Center
Sun 07:36:10 PM 40.8450 -74.7233 237° Southwest 431 496 28,000 49 Climbing Boston Center
Sun 07:37:12 PM 40.7856 -74.8561 239° Southwest 426 490 28,000  Level Boston Center
Sun 07:38:13 PM 40.7256 -74.9872 239° Southwest 424 488 28,000 -49 Level Boston Center
Sun 07:39:14 PM 40.6650 -75.1197 239° Southwest 424 488 27,900  Descending Boston Center
Sun 07:40:15 PM 40.6039 -75.2525 239° Southwest 424 488 28,000 -246 Climbing Boston Center
Sun 07:41:16 PM 40.5433 -75.3858 239° Southwest 424 488 27,400 -1,173 Descending Boston Center
Sun 07:42:28 PM 40.4692 -75.5478 239° Southwest 425 489 25,400 -1,818 Descending New York Center
Sun 07:43:28 PM 40.4117 -75.6747 239° Southwest 419 482 23,400 -2,650 Descending New York Center
Sun 07:44:28 PM 40.3525 -75.7986 238° Southwest 407 468 20,100 -1,700 Descending New York Center
Sun 07:45:28 PM 40.2972 -75.9144 238° Southwest 402 463 20,000 -50 Descending New York Center
Sun 07:46:28 PM 40.2422 -76.0300 238° Southwest 391 450 20,000 -900 Level New York Center
Sun 07:47:28 PM 40.1842 -76.1614 240° Southwest 384 442 18,200 -1,450 Descending New York Center
Sun 07:48:28 PM 40.1292 -76.2711 237° Southwest 373 429 17,100 -900 Descending New York Center
Sun 07:49:28 PM 40.0806 -76.3731 238° Southwest 373 429 16,400 -646 Descending New York Center
Sun 07:51:43 PM 39.9500 -76.6500 238° Southwest 368 423 15,000 -444 Descending Potomac TRACON
Sun 07:52:37 PM 39.9167 -76.7333 242° Southwest 365 420 15,000 -895 Level Potomac TRACON
Sun 07:53:37 PM 39.8667 -76.8500 241° Southwest 361 415 13,300 -1,000 Descending Potomac TRACON
Sun 07:54:37 PM 39.8167 -76.9500 237° Southwest 349 402 13,000 -450 Descending Potomac TRACON
Sun 07:55:37 PM 39.7667 -77.0667 241° Southwest 349 402 12,400 -950 Descending Potomac TRACON
Sun 07:56:37 PM 39.7167 -77.1667 237° Southwest 342 394 11,100 -1,263 Descending Potomac TRACON
Sun 07:57:31 PM 39.6667 -77.2667 237° Southwest 338 389 10,000 -579 Descending Potomac TRACON
Sun 07:58:31 PM 39.5833 -77.3167 205° Southwest 358 412 10,000 -400 Level Potomac TRACON
Sun 07:59:31 PM 39.5000 -77.3333 189° South 306 352 9,200 -1,200 Descending Potomac TRACON
Sun 08:00:31 PM 39.4167 -77.3667 197° South 296 341 7,600 -1,600 Descending Potomac TRACON
Sun 08:01:31 PM 39.3333 -77.3667 180° South 292 336 6,000 -1,450 Descending Potomac TRACON
Sun 08:02:31 PM 39.2500 -77.3667 180° South 282 325 4,700 -1,000 Descending Potomac TRACON
Sun 08:03:31 PM 39.1667 -77.3500 171° South 256 295 4,000 -333 Descending Potomac TRACON
Sun 08:04:37 PM 39.1000 -77.3500 180° South 244 281 4,000  Level Potomac TRACON
Sun 08:05:37 PM 39.0333 -77.3500 180° South 237 273 4,000 -50 Level Potomac TRACON
Sun 08:06:37 PM 38.9667 -77.3500 180° South 245 282 3,900 -500 Descending Potomac TRACON
Sun 08:07:37 PM 38.9000 -77.3500 180° South 235 270 3,000 -429 Descending Potomac TRACON
Sun 08:08:43 PM 38.8333 -77.3500 180° South 236 272 3,000  Level Potomac TRACON
Sun 08:09:43 PM 38.7833 -77.3833 207° Southwest 221 254 3,000 -100 Level Potomac TRACON
Sun 08:10:43 PM 38.8000 -77.4333 293° West 180 207 2,800 -550 Descending Potomac TRACON
Sun 08:11:43 PM 38.8500 -77.4333 360° North 144 166 1,900 -800 Descending Potomac TRACON
Sun 08:12:43 PM 38.8833 -77.4333 360° North 127 146 1,200 -700 Descending Potomac TRACON

Login

Don't have an account? Register now (free) for customized features, flight alerts, and more!